BAW643 LGKR-EGLL

Flight info

Callsign BAW643
Flight time N/A
Altitude 36000
Route OLGAT2F OLGAT L53 OKIMO DCT AIOSA DCT IPKIS DCT ROTAR DCT SAFFA DCT ELMUR DCT RIPUS DCT DITON DCT HOC DCT LUL DCT RLP DCT ROTSI DCT KOTUN DCT NINAL DCT ABNUR DCT DIMAL DCT ALESO ALESO1H
Aircraft A21N/M-SDE3FGIJ1LRWXYZ/SB1G1

Departure

Time 2026-05-07 18:29
Airport Corfu Ioannis Kapodistrias International Airport (LGKR)

Arrival

Time N/A
Airport London Heathrow Airport (EGLL)
Time Latitude Longitude Altitude Speed Heading
2026-05-07 18:12 39.60742 19.91340 26 ft 0 kts 79°
2026-05-07 18:21 39.60739 19.91317 24 ft 4 kts 79°
2026-05-07 18:21 39.60736 19.91283 24 ft 4 kts 95°
2026-05-07 18:21 39.60742 19.91259 24 ft 4 kts 158°
2026-05-07 18:21 39.60746 19.91257 24 ft 0 kts 169°
2026-05-07 18:24 39.60739 19.91259 26 ft 3 kts 169°
2026-05-07 18:24 39.60710 19.91246 26 ft 6 kts 215°
2026-05-07 18:24 39.60657 19.91229 24 ft 10 kts 172°
2026-05-07 18:25 39.60588 19.91206 25 ft 12 kts 221°
2026-05-07 18:25 39.60511 19.91151 25 ft 14 kts 204°
2026-05-07 18:25 39.60412 19.91157 24 ft 15 kts 168°
2026-05-07 18:25 39.60303 19.91185 26 ft 17 kts 169°
2026-05-07 18:26 39.60183 19.91216 27 ft 18 kts 169°
2026-05-07 18:26 39.60055 19.91249 26 ft 19 kts 169°
2026-05-07 18:26 39.59919 19.91284 27 ft 21 kts 168°
2026-05-07 18:26 39.59775 19.91322 26 ft 22 kts 168°
2026-05-07 18:27 39.59626 19.91360 24 ft 22 kts 168°
2026-05-07 18:27 39.59470 19.91401 25 ft 23 kts 168°
2026-05-07 18:27 39.59310 19.91442 23 ft 24 kts 168°
2026-05-07 18:27 39.59201 19.91492 24 ft 14 kts 131°
2026-05-07 18:28 39.59154 19.91499 22 ft 4 kts 259°
2026-05-07 18:28 39.59182 19.91475 23 ft 5 kts 347°
2026-05-07 18:28 39.59183 19.91475 23 ft 0 kts 347°
2026-05-07 18:28 39.59386 19.91421 23 ft 70 kts 349°
2026-05-07 18:29 39.60103 19.91238 27 ft 137 kts 348°
2026-05-07 18:29 39.61140 19.90964 386 ft 154 kts 348°
2026-05-07 18:29 39.62184 19.90690 1041 ft 153 kts 348°
2026-05-07 18:29 39.63254 19.90415 1577 ft 161 kts 348°
2026-05-07 18:30 39.64409 19.90106 2048 ft 180 kts 346°
2026-05-07 18:30 39.65540 19.89288 2537 ft 197 kts 313°
2026-05-07 18:30 39.66146 19.87654 3112 ft 211 kts 279°
2026-05-07 18:30 39.66144 19.85701 3771 ft 222 kts 266°
2026-05-07 18:31 39.66059 19.83680 4562 ft 226 kts 267°
2026-05-07 18:31 39.65995 19.81627 5375 ft 230 kts 267°
2026-05-07 18:31 39.66085 19.79569 6156 ft 234 kts 285°
2026-05-07 18:31 39.66886 19.77678 6668 ft 252 kts 311°
2026-05-07 18:32 39.68159 19.75977 7092 ft 273 kts 315°
2026-05-07 18:32 39.69542 19.74208 7729 ft 283 kts 315°
2026-05-07 18:32 39.70945 19.72377 8531 ft 288 kts 314°
2026-05-07 18:32 39.72354 19.70511 9348 ft 291 kts 314°
2026-05-07 18:33 39.73768 19.68615 10154 ft 294 kts 313°
2026-05-07 18:33 39.75231 19.66636 10600 ft 314 kts 312°
2026-05-07 18:33 39.76792 19.64517 10914 ft 335 kts 312°
2026-05-07 18:33 39.78449 19.62260 11256 ft 353 kts 311°
2026-05-07 18:34 39.80164 19.59926 11920 ft 360 kts 311°
2026-05-07 18:34 39.81903 19.57564 12688 ft 363 kts 311°
2026-05-07 18:34 39.83650 19.55174 13429 ft 366 kts 311°
2026-05-07 18:34 39.85415 19.52770 14136 ft 369 kts 311°
2026-05-07 18:35 39.87188 19.50393 14822 ft 372 kts 312°
2026-05-07 18:35 39.89005 19.47972 15493 ft 375 kts 312°
2026-05-07 18:35 39.90832 19.45522 16138 ft 378 kts 312°
2026-05-07 18:35 39.92669 19.43050 16757 ft 382 kts 312°
2026-05-07 18:36 39.94525 19.40552 17372 ft 385 kts 312°
2026-05-07 18:36 39.96392 19.38038 17961 ft 387 kts 312°
2026-05-07 18:36 39.98273 19.35501 18535 ft 390 kts 312°
2026-05-07 18:36 40.00169 19.32946 19089 ft 393 kts 312°
2026-05-07 18:37 40.02077 19.30368 19630 ft 396 kts 312°
2026-05-07 18:37 40.03997 19.27770 20157 ft 399 kts 312°
2026-05-07 18:37 40.05934 19.25145 20680 ft 403 kts 312°
2026-05-07 18:37 40.07885 19.22507 21202 ft 405 kts 312°
2026-05-07 18:38 40.09846 19.19846 21717 ft 408 kts 312°
2026-05-07 18:38 40.11829 19.17167 22206 ft 411 kts 312°
2026-05-07 18:38 40.13823 19.14469 22704 ft 414 kts 312°
2026-05-07 18:38 40.15830 19.11751 23187 ft 417 kts 313°
2026-05-07 18:39 40.17823 19.09041 23647 ft 419 kts 313°
2026-05-07 18:39 40.19851 19.06287 24104 ft 422 kts 313°
2026-05-07 18:39 40.21893 19.03506 24542 ft 424 kts 313°
2026-05-07 18:39 40.23944 19.00710 24985 ft 427 kts 312°
2026-05-07 18:40 40.26007 18.97905 25438 ft 429 kts 312°
2026-05-07 18:40 40.28078 18.95083 25870 ft 431 kts 312°
2026-05-07 18:40 40.30157 18.92244 26284 ft 432 kts 312°
2026-05-07 18:40 40.32247 18.89395 26674 ft 434 kts 312°
2026-05-07 18:41 40.34339 18.86534 27068 ft 436 kts 312°
2026-05-07 18:41 40.36437 18.83667 27456 ft 437 kts 312°
2026-05-07 18:41 40.38544 18.80780 27829 ft 438 kts 312°
2026-05-07 18:41 40.40653 18.77892 28184 ft 439 kts 312°
2026-05-07 18:42 40.42775 18.74987 28512 ft 441 kts 312°
2026-05-07 18:42 40.44895 18.72073 28840 ft 443 kts 312°
2026-05-07 18:42 40.47026 18.69145 29157 ft 444 kts 312°
2026-05-07 18:42 40.49134 18.66253 29544 ft 443 kts 312°
2026-05-07 18:43 40.51258 18.63331 29966 ft 440 kts 312°
2026-05-07 18:43 40.53369 18.60426 30394 ft 438 kts 312°
2026-05-07 18:43 40.55469 18.57529 30786 ft 436 kts 311°
2026-05-07 18:43 40.57557 18.54642 31173 ft 435 kts 311°
2026-05-07 18:44 40.59641 18.51771 31548 ft 433 kts 311°